Weather History for Clinton, MO

Change the Weather History Date:

Tuesday, November 8, 2011

  Actual Average (KSZL) Record (KSZL)
Temperature  
Mean Temperature 58 °F -  
Max Temperature 60 °F 54 °F 80 °F (2005)
Min Temperature 55 °F 37 °F 29 °F (2013)
Degree Days  
Heating Degree Days 8    
Growing Degree Days 8 (Base 50)    
Moisture  
Dew Point 57 °F    
Average Humidity 97    
Maximum Humidity 100    
Minimum Humidity 88    
Precipitation  
Precipitation 0.00 in - - ()
Sea Level Pressure  
Sea Level Pressure 29.89 in    
Wind  
Wind Speed 3 mph (East)    
Max Wind Speed 12 mph    
Max Gust Speed -    
Visibility 7 miles    
Events Rain    
Averages and records for this station are not official NWS values.
T = Trace of Precipitation, MM = Missing Value Source: NWS Daily Summary

Daily Weather History Graph

Daily Weather History Graph

Search for Another Location

Airport:

Trip Planner

Search our weather history database for the weather conditions in past years. The results will help you decide how hot, cold, wet, or windy it might be!

Date:

Astronomy

Nov. 08, 2011 Rise Set
Actual Time 6:48 AM CST 5:08 PM CST
Civil Twilight 6:20 AM CST 5:35 PM CST
Nautical Twilight 5:48 AM CST 6:07 PM CST
Astronomical Twilight 5:17 AM CST 6:38 PM CST
Moon 3:47 PM CST (11/8) 4:48 AM CST (11/8)
Length of Visible Light 11h 15m
Length of Day
10h 19m
Waxing Gibbous, 96% of the Moon is Illuminated
Nov 8
Waxing Gibbous
Nov 10
Full
Nov 18
Last Quarter
Nov 25
New
Dec 2
First Quarter

Hourly Weather History & Observations

Time (CST) Temp. Windchill Dew Point Humidity Pressure Visibility Wind Dir Wind Speed Gust Speed Precip Events Conditions
12:15 AM 57.2 °F - 57.2 °F 100% 29.94 in 2.0 mi Calm Calm - N/A Rain Rain
12:35 AM 57.2 °F - 57.2 °F 100% 29.92 in 2.5 mi Calm Calm - N/A Rain Heavy Rain
1:15 AM 57.2 °F - 57.2 °F 100% 29.92 in 2.0 mi Calm Calm - N/A Rain Heavy Rain
1:35 AM 57.2 °F - 57.2 °F 100% 29.89 in 1.5 mi Calm Calm - N/A Rain Heavy Rain
1:55 AM 57.2 °F - 57.2 °F 100% 29.94 in 1.5 mi WSW 4.6 mph - N/A Rain Heavy Rain
2:15 AM 57.2 °F - 57.2 °F 100% 29.92 in 1.8 mi Calm Calm - N/A Rain Heavy Rain
2:35 AM 57.2 °F - 57.2 °F 100% 29.91 in 1.8 mi NNE 3.5 mph - N/A Rain Heavy Rain
2:55 AM 57.2 °F - 57.2 °F 100% 29.90 in 2.5 mi NNE 6.9 mph - N/A Rain Rain
3:15 AM 57.2 °F - 57.2 °F 100% 29.91 in 3.0 mi North 3.5 mph - N/A Rain Rain
3:35 AM 57.2 °F - 57.2 °F 100% 29.93 in 3.0 mi Calm Calm - N/A Rain Rain
3:55 AM 55.4 °F - 55.4 °F 100% 29.93 in 3.0 mi Calm Calm - N/A Rain Light Rain
4:35 AM 55.4 °F - 55.4 °F 100% 29.91 in 3.0 mi SSE 6.9 mph - N/A Rain Light Rain
4:55 AM 57.2 °F - 57.2 °F 100% 29.86 in 6.0 mi ESE 11.5 mph - N/A   Mostly Cloudy
5:15 AM 57.2 °F - 57.2 °F 100% 29.85 in 10.0 mi ESE 9.2 mph - N/A   Partly Cloudy
5:35 AM 57.2 °F - 57.2 °F 100% 29.86 in 10.0 mi ESE 9.2 mph - N/A   Partly Cloudy
5:55 AM 57.2 °F - 57.2 °F 100% 29.87 in 10.0 mi ESE 8.1 mph - N/A   Mostly Cloudy
6:15 AM 57.2 °F - 57.2 °F 100% 29.88 in 10.0 mi ESE 3.5 mph - N/A   Mostly Cloudy
6:35 AM 57.2 °F - 57.2 °F 100% 29.91 in 10.0 mi Calm Calm - N/A   Overcast
6:55 AM 57.2 °F - 57.2 °F 100% 29.90 in 10.0 mi North 5.8 mph - N/A   Overcast
7:15 AM 57.2 °F - 55.4 °F 94% 29.91 in 10.0 mi North 4.6 mph - N/A   Overcast
7:35 AM 55.4 °F - 55.4 °F 100% 29.91 in 10.0 mi NNW 6.9 mph - N/A   Overcast
7:55 AM 55.4 °F - 55.4 °F 100% 29.92 in 10.0 mi NNW 6.9 mph - N/A   Overcast
8:15 AM 55.4 °F - 55.4 °F 100% 29.94 in 10.0 mi North 4.6 mph - N/A   Mostly Cloudy
8:35 AM 55.4 °F - 55.4 °F 100% 29.95 in 10.0 mi Calm Calm - N/A   Mostly Cloudy
8:55 AM 55.4 °F - 55.4 °F 100% 29.96 in 10.0 mi Calm Calm - N/A Rain Light Rain
9:15 AM 55.4 °F - 55.4 °F 100% 29.96 in 3.0 mi NNE 5.8 mph - N/A Rain Rain
9:35 AM 55.4 °F - 55.4 °F 100% 29.96 in 3.0 mi North 4.6 mph - N/A Rain Rain
9:55 AM 55.4 °F - 55.4 °F 100% 29.95 in 5.0 mi NNE 4.6 mph - N/A Rain Light Rain
10:15 AM 55.4 °F - 53.6 °F 94% 29.95 in 5.0 mi NE 5.8 mph - N/A   Overcast
10:35 AM 55.4 °F - 55.4 °F 100% 29.97 in 5.0 mi Calm Calm - N/A Rain Light Rain
10:55 AM 55.4 °F - 55.4 °F 100% 29.96 in 2.0 mi Calm Calm - N/A Rain Light Rain
11:15 AM 55.4 °F - 55.4 °F 100% 29.94 in 3.0 mi East 6.9 mph - N/A Rain Light Rain
11:35 AM 57.2 °F - 57.2 °F 100% 29.92 in 3.0 mi ESE 5.8 mph - N/A   Light Drizzle
11:55 AM 57.2 °F - 57.2 °F 100% 29.91 in 7.0 mi SSE 6.9 mph - N/A   Light Drizzle
12:15 PM 59.0 °F - 59.0 °F 100% 29.91 in 8.0 mi SSE 5.8 mph - N/A   Overcast
12:35 PM 59.0 °F - 57.2 °F 94% 29.90 in 10.0 mi SSE 5.8 mph - N/A   Overcast
12:55 PM 59.0 °F - 57.2 °F 94% 29.86 in 7.0 mi SE 10.4 mph - N/A   Mostly Cloudy
1:15 PM 59.0 °F - 57.2 °F 94% 29.84 in 10.0 mi SE 8.1 mph - N/A   Clear
1:35 PM 60.8 °F - 57.2 °F 88% 29.85 in 10.0 mi SE 6.9 mph - N/A   Partly Cloudy
1:55 PM 60.8 °F - 59.0 °F 94% 29.84 in 10.0 mi SE 6.9 mph - N/A   Mostly Cloudy
2:15 PM 60.8 °F - 57.2 °F 88% 29.83 in 10.0 mi SE 6.9 mph - N/A   Overcast
2:35 PM 60.8 °F - 59.0 °F 94% 29.83 in 10.0 mi SE 4.6 mph - N/A   Overcast
2:55 PM 60.8 °F - 57.2 °F 88% 29.82 in 10.0 mi SE 4.6 mph - N/A   Overcast
3:15 PM 60.8 °F - 57.2 °F 88% 29.81 in 9.0 mi ESE 5.8 mph - N/A   Overcast
3:35 PM 60.8 °F - 57.2 °F 88% 29.81 in 10.0 mi Calm Calm - N/A   Overcast
3:55 PM 60.8 °F - 57.2 °F 88% 29.81 in 10.0 mi East 3.5 mph - N/A   Overcast
4:15 PM 60.8 °F - 57.2 °F 88% 29.80 in 10.0 mi NE 4.6 mph - N/A   Mostly Cloudy
4:35 PM 60.8 °F - 57.2 °F 88% 29.82 in 10.0 mi ENE 4.6 mph - N/A   Mostly Cloudy
4:55 PM 60.8 °F - 57.2 °F 88% 29.81 in 10.0 mi Calm Calm - N/A   Overcast
5:15 PM 60.8 °F - 57.2 °F 88% 29.81 in 10.0 mi North 5.8 mph - N/A   Overcast
5:35 PM 57.2 °F - 55.4 °F 94% 29.81 in 6.0 mi NNE 6.9 mph - N/A   Overcast
5:55 PM 57.2 °F - 55.4 °F 94% 29.81 in 6.0 mi NNE 8.1 mph - N/A   Overcast
6:15 PM 55.4 °F - 55.4 °F 100% 29.82 in 5.0 mi Calm Calm - N/A   Overcast
6:35 PM 55.4 °F - 55.4 °F 100% 29.82 in 4.0 mi NNW 5.8 mph - N/A   Light Drizzle
6:55 PM 55.4 °F - 53.6 °F 94% 29.81 in 2.5 mi NNE 9.2 mph - N/A   Overcast
7:15 PM 53.6 °F - 53.6 °F 100% 29.81 in 4.0 mi North 6.9 mph - N/A   Overcast
7:35 PM 53.6 °F - 53.6 °F 100% 29.80 in 4.0 mi NNE 8.1 mph - N/A   Overcast
7:55 PM 53.6 °F - 53.6 °F 100% 29.79 in 1.8 mi NE 6.9 mph - N/A Rain Light Rain
8:15 PM 53.6 °F - 53.6 °F 100% 29.78 in 4.0 mi NE 5.8 mph - N/A   Light Drizzle
8:55 PM 53.6 °F - 51.8 °F 94% 29.77 in 6.0 mi NE 6.9 mph - N/A   Overcast
9:15 PM 53.6 °F - 51.8 °F 94% 29.76 in 7.0 mi NE 6.9 mph - N/A   Overcast
9:35 PM 53.6 °F - 51.8 °F 94% 29.75 in 7.0 mi Calm Calm - N/A   Overcast
9:55 PM 53.6 °F - 51.8 °F 94% 29.75 in 7.0 mi NE 3.5 mph - N/A   Overcast
10:15 PM 53.6 °F - 53.6 °F 100% 29.75 in 6.0 mi SW 4.6 mph - N/A   Overcast
10:35 PM 55.4 °F - 55.4 °F 100% 29.74 in 8.0 mi Calm Calm - N/A   Light Drizzle
10:55 PM 51.8 °F - 51.8 °F 100% 29.76 in 5.0 mi WNW 10.4 mph 20.7 mph N/A Rain Rain
11:15 PM 48.2 °F - 48.2 °F 100% 29.78 in 8.0 mi WNW 16.1 mph 21.9 mph N/A Rain Rain
11:35 PM 46.4 °F 41.1 °F 46.4 °F 100% 29.79 in 10.0 mi NW 11.5 mph - N/A   Overcast
11:55 PM 46.4 °F 41.1 °F 44.6 °F 93% 29.80 in 5.0 mi NW 11.5 mph - N/A   Light Drizzle